Theta_e
335 336 336 338 335 335 335 336 337 339 339 340 342 342 343 342 341 341 339 340 341 342 342 341 339 337 336 327 327 328 339 348 347 347 345 343 341 340 340 337 336 334 333 333
336 336 337 337 335 335 335 336 337 338 336 339 341 342 341 341 341 340 341 341 340 342 343 341 341 340 338 337 328 329 342 346 346 344 344 342 339 338 338 337 335 334 332 332
336 336 337 337 335 335 335 336 335 335 335 337 339 345 342 338 336 340 340 340 342 341 340 342 342 342 341 339 332 333 336 342 337 343 341 338 337 338 338 335 335 333 332 333
335 335 336 335 334 335 336 335 334 334 338 342 340 350 346 343 341 340 340 340 341 340 341 341 341 343 344 342 343 339 333 339 335 339 340 339 338 335 335 337 335 333 332 331
334 335 335 335 334 334 335 334 333 339 337 341 341 341 346 338 337 336 339 339 339 338 337 337 338 339 343 346 344 342 342 341 341 340 339 340 338 336 336 337 335 334 334 334
333 334 334 334 333 333 334 336 339 341 341 347 342 343 347 344 342 338 339 335 334 335 337 337 338 337 338 346 346 344 344 344 344 344 341 337 338 339 337 336 335 335 334 334
333 334 334 333 333 334 335 339 339 342 351 345 342 343 345 340 338 339 335 335 335 335 336 337 339 338 339 340 342 344 344 343 344 344 343 342 339 335 335 336 333 336 335 335
334 335 335 334 333 333 334 335 339 342 341 339 341 345 342 337 334 336 334 336 336 337 336 336 339 337 336 336 341 340 341 343 343 342 342 341 340 339 338 335 336 335 335 336
334 336 335 334 334 333 334 334 336 341 337 340 344 343 341 337 339 338 337 337 338 338 336 334 336 336 334 334 339 339 339 341 344 344 342 340 340 339 338 338 337 337 334 335
334 336 336 334 333 333 333 335 340 338 345 343 344 345 347 342 341 341 339 338 339 338 334 332 334 335 335 334 333 339 339 339 341 341 338 340 339 338 338 337 336 335 335 335
333 336 336 335 334 335 335 336 338 340 343 342 342 339 340 338 337 338 337 339 339 337 333 332 333 335 337 336 334 338 339 342 340 339 339 339 340 339 338 337 336 333 333 331
332 340 335 334 335 336 335 337 337 339 343 343 342 341 338 337 337 335 336 340 340 336 335 333 333 334 337 336 336 339 339 340 340 338 339 339 340 340 339 337 335 337 334 331
336 333 334 337 336 338 335 336 339 337 344 345 338 344 339 336 335 335 340 340 339 336 334 334 334 335 336 335 335 339 339 339 339 339 338 336 335 336 336 335 334 334 334 332
338 340 338 338 336 334 338 338 336 336 338 337 335 337 343 340 337 341 340 339 336 335 334 334 335 336 335 334 335 339 339 339 338 336 335 335 334 334 335 335 334 335 335 334
335 337 334 334 335 335 333 332 333 334 335 337 337 337 343 341 342 340 342 339 335 335 334 333 334 336 335 332 334 339 339 338 337 335 335 333 332 333 330 335 332 332 334 334
340 341 337 335 335 334 333 335 334 333 334 336 338 338 340 335 333 334 338 339 336 335 334 333 335 337 336 333 335 337 338 337 336 335 333 330 331 329 330 330 331 332 331 332
347 345 345 339 339 337 340 340 339 339 339 336 335 337 341 341 337 332 336 339 337 335 334 333 334 335 334 333 334 334 335 335 335 334 331 329 329 327 324 324 325 326 326 327
348 352 343 340 339 338 340 337 337 337 338 335 335 336 341 340 340 335 338 337 336 334 334 334 335 334 333 332 334 333 334 334 334 333 330 327 325 325 324 324 325 325 324 324
345 348 340 343 340 338 339 338 336 339 339 337 340 338 338 338 340 339 338 337 335 335 334 335 335 335 335 335 334 333 333 334 332 332 329 326 325 324 323 323 324 322 323 322
345 350 343 339 339 343 345 335 335 336 335 342 334 334 330 335 341 342 339 338 336 336 335 335 335 336 337 336 336 334 334 334 332 332 329 326 327 326 324 323 321 320 324 324
345 347 346 345 337 337 339 336 336 338 351 346 339 335 335 341 342 341 340 338 337 336 337 337 337 336 337 336 335 335 335 333 332 332 329 328 327 326 320 323 322 322 322 322
348 346 341 340 342 343 336 336 342 344 343 341 340 344 345 343 339 340 341 338 339 338 336 336 336 336 338 339 336 335 335 334 333 332 330 329 328 325 322 324 322 323 323 323
344 339 343 336 342 338 335 335 336 340 342 342 344 344 344 344 343 340 339 340 339 339 339 338 336 337 338 338 337 335 333 332 333 331 330 330 329 326 324 323 325 324 324 324
338 336 341 342 340 339 336 334 338 342 341 340 340 342 344 344 343 342 341 339 340 339 339 339 339 337 337 338 337 336 334 332 332 331 330 330 329 326 325 324 323 325 323 321
337 338 338 341 340 334 335 341 340 338 336 336 337 339 340 342 341 339 339 340 339 337 337 337 338 338 338 338 338 335 335 333 333 332 330 330 328 327 324 324 324 323 322 321
332 339 337 340 335 337 338 340 337 336 334 333 332 337 338 337 337 338 338 339 339 338 337 337 338 339 339 339 338 334 335 334 333 331 331 328 327 320 318 322 322 322 320 319
Wind_Speed
21 16 2 28 9 12 14 16 16 9 13 17 12 10 6 18 10 9 7 11 9 8 14 9 5 3 6 4 4 5 10 16 20 18 15 12 13 14 14 12 13 15 14 10
17 8 12 24 12 15 14 16 14 12 13 7 9 11 16 27 25 11 13 13 10 11 11 10 8 6 4 9 6 7 8 13 17 14 13 11 12 15 14 10 13 18 15 13
17 9 10 20 12 16 17 13 15 17 21 5 14 15 11 7 35 33 15 7 12 2 2 10 11 10 9 12 9 7 9 12 12 13 12 14 14 14 14 12 13 17 18 17
16 15 10 7 14 17 14 19 21 18 18 10 20 4 7 9 13 25 31 52 13 8 7 5 5 13 12 12 9 9 10 12 11 17 10 14 10 10 11 9 12 16 16 13
13 17 16 10 12 15 15 18 16 12 11 7 9 1 3 5 6 23 20 7 4 5 5 4 1 1 2 8 10 7 8 9 9 9 14 10 13 12 12 15 13 11 14 14
20 17 17 9 12 14 11 14 2 10 4 6 6 8 3 9 9 18 8 6 2 4 9 13 15 15 15 4 1 4 8 7 9 10 9 17 13 11 12 12 10 13 16 19
19 19 18 14 9 18 10 14 9 4 2 5 8 8 8 17 16 26 11 11 5 6 13 12 13 12 13 10 6 7 6 7 7 9 11 12 13 15 18 19 17 14 17 17
16 8 10 6 4 8 13 13 7 14 11 13 7 2 2 14 29 38 6 9 5 9 9 8 12 11 11 8 7 8 7 5 5 9 10 12 14 15 14 14 9 13 16 15
13 9 10 5 5 12 7 10 13 15 14 4 8 8 11 6 17 34 16 12 8 6 5 9 14 12 11 12 9 11 8 3 1 3 9 15 15 18 18 16 16 12 19 15
13 9 9 8 3 11 12 9 7 5 11 7 7 6 6 9 20 14 26 14 10 2 10 8 12 11 10 11 13 11 9 7 5 10 14 13 12 13 13 13 14 15 17 18
8 6 13 16 9 13 4 4 1 3 3 2 2 6 6 4 5 14 34 6 9 7 9 8 10 10 9 10 11 10 9 8 11 11 10 9 11 12 13 15 13 12 14 16
10 6 9 15 9 14 10 13 12 4 5 4 3 3 13 19 25 36 25 10 9 4 8 9 10 11 9 10 10 9 6 8 7 8 8 6 10 11 11 15 14 13 12 12
5 2 7 15 11 3 6 7 18 6 5 12 11 2 19 29 26 30 15 13 14 12 10 11 8 10 10 10 9 6 7 7 7 7 7 12 12 12 14 16 11 8 9 9
7 5 8 11 14 10 8 16 16 5 4 10 12 12 8 10 13 28 8 9 12 10 11 9 7 9 9 10 8 5 6 6 6 7 7 8 9 11 12 16 12 6 7 8
1 5 11 15 18 18 15 14 16 14 10 11 12 15 14 8 7 13 10 13 5 12 11 9 9 7 8 8 6 5 5 5 6 7 8 9 8 8 10 11 13 6 5 7
5 7 12 16 18 17 19 19 13 16 13 9 13 12 3 5 16 16 41 15 8 13 9 6 5 4 5 5 4 4 4 6 6 6 7 7 5 6 8 8 6 8 5 5
7 7 8 15 17 13 14 6 18 13 15 16 14 13 7 6 5 24 30 14 9 12 7 3 3 3 1 2 2 3 4 5 5 6 5 3 3 6 6 6 7 7 7 5
8 7 9 11 14 19 7 11 8 6 20 9 12 7 16 12 32 11 26 11 11 8 6 4 4 3 3 1 2 3 4 4 6 4 3 3 4 4 6 7 9 10 9 7
11 8 10 11 14 19 6 6 7 6 10 12 12 19 10 10 7 7 8 12 11 5 6 7 5 6 4 3 4 2 3 5 6 6 4 5 5 6 7 7 11 10 10 8
13 10 8 11 16 20 7 9 26 31 5 15 25 27 35 40 7 9 9 11 10 8 7 7 6 8 5 4 7 3 4 5 6 8 6 7 9 9 9 10 10 9 9 7
3 4 4 16 14 17 11 18 18 9 5 13 10 23 35 11 5 7 2 2 4 9 10 10 9 8 9 9 9 7 6 7 8 9 8 8 9 11 10 8 14 10 9 9
9 7 5 8 9 11 15 18 9 6 9 13 12 11 14 16 9 7 10 10 13 11 8 11 12 11 13 13 12 11 11 12 11 10 9 10 10 9 9 11 10 9 8 11
12 5 6 7 11 12 9 12 9 11 8 12 15 14 14 16 17 14 14 15 18 16 8 15 13 13 16 18 16 15 14 13 12 11 11 12 11 9 11 13 10 11 12 5
6 22 9 6 10 7 11 12 2 7 6 9 13 15 15 18 15 19 18 18 16 16 12 17 16 18 19 20 19 19 16 13 11 11 11 12 11 11 12 11 10 9 12 14
5 12 19 9 8 3 31 15 11 8 10 13 14 14 16 15 17 17 21 20 19 20 20 22 21 23 24 23 21 20 17 15 14 11 11 13 15 16 8 14 13 12 17 14
18 10 9 7 12 10 9 4 7 7 13 17 20 15 12 18 22 22 22 21 23 22 22 23 24 27 29 29 23 16 17 17 13 9 8 15 18 13 9 14 14 10 13 12
Wind_Direction
268 258 31 298 338 338 313 320 348 112 155 191 59 89 150 165 143 153 188 179 207 216 145 149 170 196 267 243 215 198 191 205 213 218 220 214 225 231 234 236 239 229 245 223
255 266 8 310 317 304 291 308 346 308 1 12 101 63 41 28 322 185 205 176 235 205 171 164 189 207 236 276 259 236 209 218 213 207 224 228 234 243 238 247 229 230 234 230
275 268 196 248 295 300 317 317 346 332 325 331 12 58 51 54 287 314 325 225 179 258 46 178 204 213 232 269 275 253 233 229 220 190 229 234 228 216 220 245 239 237 242 227
273 281 267 300 294 283 308 347 331 329 360 46 1 68 81 239 284 320 97 251 179 143 188 174 223 233 223 236 265 270 249 225 231 196 210 237 249 248 270 247 247 246 257 250
269 287 314 281 316 333 315 322 319 20 10 350 351 22 258 304 250 246 267 99 115 207 144 192 201 143 183 217 232 264 270 240 221 247 210 235 264 239 271 264 246 246 243 243
287 284 289 275 283 302 301 288 228 52 26 339 205 175 267 228 235 253 169 96 193 243 139 78 54 46 39 86 189 237 237 258 260 240 268 232 222 251 251 269 234 248 250 253
257 251 245 255 312 285 237 299 317 271 36 237 239 232 185 221 242 278 158 164 123 21 57 57 57 36 36 27 22 347 259 241 262 260 264 277 277 259 252 263 247 248 244 240
287 335 267 164 252 318 317 299 310 321 327 349 177 95 231 275 306 292 166 129 89 54 51 57 85 51 28 18 24 10 358 242 246 280 274 288 278 272 277 279 278 252 243 252
284 317 149 199 307 300 321 319 345 333 289 329 69 5 306 316 277 281 183 120 106 91 85 62 87 69 40 31 47 37 10 334 297 267 285 298 290 273 280 261 264 261 245 246
268 311 287 120 221 267 246 294 329 335 316 19 144 207 229 187 238 329 338 137 117 177 75 56 83 71 53 35 28 25 20 338 308 326 307 304 304 289 289 281 277 246 244 239
265 271 289 315 278 277 195 231 255 298 311 11 294 124 125 92 162 273 247 142 137 99 62 55 73 61 62 36 25 22 24 31 6 347 357 353 328 321 312 305 292 267 254 248
231 228 269 281 333 36 28 336 302 311 336 218 214 166 191 180 206 223 247 140 90 54 85 63 51 52 58 45 31 23 27 8 1 347 337 318 339 334 311 306 298 281 254 248
292 261 259 264 236 43 316 270 258 249 230 276 305 99 196 204 214 236 195 128 147 112 79 73 36 44 52 43 28 29 25 10 3 358 9 350 349 349 344 342 319 291 257 263
11 300 270 288 315 301 220 235 269 289 256 288 294 333 102 103 78 313 133 138 95 93 73 72 45 40 41 35 22 37 23 5 5 353 352 359 353 355 354 349 346 316 276 270
208 261 272 277 285 291 301 289 283 291 287 276 321 336 70 81 148 236 180 111 126 106 74 55 54 43 27 22 26 22 19 357 359 349 345 357 8 336 344 2 7 359 315 282
186 266 264 279 283 281 278 290 279 277 291 307 324 300 221 200 7 97 270 137 136 84 65 53 44 52 37 20 13 356 1 349 355 352 350 339 12 6 7 359 3 7 359 316
190 251 265 270 287 320 306 302 351 346 338 329 332 335 239 291 159 213 243 151 117 103 96 75 76 81 77 31 353 343 329 339 333 338 343 2 359 345 349 341 337 349 342 340
283 256 267 278 280 275 3 113 192 9 315 313 311 288 214 127 250 19 262 133 95 101 123 133 133 133 169 197 279 312 309 319 303 293 312 302 312 313 320 324 319 325 328 330
202 261 283 283 282 279 225 36 309 166 285 344 28 8 349 216 174 214 170 107 110 132 159 167 167 185 198 182 241 276 300 292 299 269 284 278 295 293 290 293 294 305 306 322
204 199 249 269 284 291 253 121 216 248 247 36 78 42 333 295 314 57 69 128 141 172 189 182 177 203 206 211 233 242 255 278 283 265 256 264 284 285 288 292 308 314 311 323
84 350 71 295 253 262 29 180 254 279 37 345 102 179 207 254 45 111 111 163 187 210 209 202 195 211 218 223 230 238 240 252 258 247 254 255 265 270 306 268 298 309 313 314
182 149 179 240 313 245 350 346 2 328 323 325 336 338 333 322 294 233 207 218 222 220 227 240 229 221 235 237 235 237 238 248 250 261 249 262 263 279 278 293 302 322 320 327
246 281 169 152 217 201 190 203 252 242 350 332 334 313 305 301 300 289 285 247 242 228 219 236 242 235 229 232 234 236 244 249 250 261 257 267 262 265 272 291 293 306 323 341
321 17 298 290 307 297 252 301 103 63 22 340 327 311 297 295 297 301 293 299 285 268 266 253 251 241 235 234 235 241 238 240 244 250 259 273 267 262 255 272 302 295 281 293
264 94 238 280 313 7 288 51 46 21 350 332 318 312 314 299 291 290 295 291 290 296 289 275 261 249 238 229 233 231 236 242 242 239 252 241 258 272 250 280 280 266 283 287
298 299 316 315 306 314 309 70 24 327 302 306 294 289 306 314 312 308 306 303 298 294 294 294 276 256 238 220 202 222 236 236 227 229 246 293 292 292 277 266 293 283 297 288